AZU2954 SBKP-SBBE

Flight info

Callsign AZU2954
Flight time 2h 57m
Altitude 34000
Route ISMOB UZ26 SEKPO/N0460F360 UZ26 IROMU
Aircraft A320/M-SDE3FGHIRWY/LB1

Departure

Time 2026-05-08 23:16
Airport Viracopos International Airport (SBKP)

Arrival

Time 2026-05-09 02:13
Airport Val de Cans/Júlio Cezar Ribeiro International Airport (SBBE)
Time Latitude Longitude Altitude Speed Heading
2026-05-08 22:38 -23.00429 -47.14823 2169 ft 0 kts 218°
2026-05-08 23:07 -23.00422 -47.14817 1909 ft 3 kts 215°
2026-05-08 23:07 -23.00405 -47.14806 2164 ft 3 kts 194°
2026-05-08 23:07 -23.00387 -47.14804 2164 ft 3 kts 147°
2026-05-08 23:07 -23.00380 -47.14810 1915 ft 0 kts 128°
2026-05-08 23:11 -23.00381 -47.14808 1848 ft 2 kts 128°
2026-05-08 23:11 -23.00399 -47.14783 1815 ft 7 kts 121°
2026-05-08 23:11 -23.00380 -47.14728 2159 ft 11 kts 38°
2026-05-08 23:12 -23.00308 -47.14668 2163 ft 14 kts 38°
2026-05-08 23:12 -23.00257 -47.14625 2164 ft 7 kts 38°
2026-05-08 23:12 -23.00223 -47.14596 2163 ft 5 kts 39°
2026-05-08 23:12 -23.00191 -47.14577 2164 ft 6 kts 11°
2026-05-08 23:13 -23.00143 -47.14603 2166 ft 10 kts 313°
2026-05-08 23:13 -23.00097 -47.14665 2161 ft 10 kts 308°
2026-05-08 23:13 -23.00060 -47.14717 2164 ft 8 kts 308°
2026-05-08 23:13 -23.00033 -47.14755 2159 ft 5 kts 308°
2026-05-08 23:14 -22.99984 -47.14786 2166 ft 12 kts 350°
2026-05-08 23:14 -22.99913 -47.14752 2159 ft 11 kts 56°
2026-05-08 23:14 -22.99888 -47.14679 2161 ft 9 kts 84°
2026-05-08 23:14 -22.99904 -47.14619 2165 ft 6 kts 123°
2026-05-08 23:15 -22.99905 -47.14617 2161 ft 0 kts 125°
2026-05-08 23:15 -23.00062 -47.14394 2164 ft 74 kts 128°
2026-05-08 23:15 -23.00510 -47.13765 2162 ft 134 kts 128°
2026-05-08 23:15 -23.01185 -47.12820 2188 ft 180 kts 128°
2026-05-08 23:16 -23.01898 -47.11712 2772 ft 182 kts 110°
2026-05-08 23:16 -23.02024 -47.10281 2969 ft 200 kts 81°
2026-05-08 23:16 -23.01767 -47.08720 3147 ft 221 kts 77°
2026-05-08 23:16 -23.01435 -47.07000 3351 ft 245 kts 75°
2026-05-08 23:17 -23.01089 -47.05101 3673 ft 267 kts 76°
2026-05-08 23:17 -23.00734 -47.03108 4254 ft 277 kts 70°
2026-05-08 23:17 -22.99796 -47.01308 4818 ft 276 kts 39°
2026-05-08 23:17 -22.98290 -47.00013 5434 ft 279 kts 31°
2026-05-08 23:18 -22.96738 -46.98762 6266 ft 277 kts 32°
2026-05-08 23:18 -22.95201 -46.97516 7142 ft 274 kts 32°
2026-05-08 23:18 -22.93669 -46.96270 7778 ft 278 kts 32°
2026-05-08 23:18 -22.92075 -46.95082 7971 ft 276 kts 21°
2026-05-08 23:19 -22.90264 -46.94557 8010 ft 268 kts 359°
2026-05-08 23:19 -22.88444 -46.94886 8378 ft 267 kts 336°
2026-05-08 23:19 -22.86825 -46.95810 9129 ft 267 kts 329°
2026-05-08 23:19 -22.85198 -46.96810 9827 ft 270 kts 329°
2026-05-08 23:20 -22.83542 -46.97825 10301 ft 282 kts 329°
2026-05-08 23:20 -22.81768 -46.98916 10442 ft 304 kts 329°
2026-05-08 23:20 -22.79867 -47.00088 10566 ft 325 kts 329°
2026-05-08 23:20 -22.77860 -47.01323 10864 ft 337 kts 329°
2026-05-08 23:21 -22.75795 -47.02578 11381 ft 342 kts 330°
2026-05-08 23:21 -22.73675 -47.03787 11932 ft 346 kts 332°
2026-05-08 23:21 -22.71545 -47.04950 12485 ft 349 kts 333°
2026-05-08 23:21 -22.69360 -47.06123 13026 ft 352 kts 333°
2026-05-08 23:22 -22.67154 -47.07307 13583 ft 356 kts 333°
2026-05-08 23:22 -22.64927 -47.08508 14074 ft 359 kts 333°
2026-05-08 23:22 -22.62686 -47.09728 14582 ft 362 kts 333°
2026-05-08 23:22 -22.60431 -47.10963 15081 ft 365 kts 333°
2026-05-08 23:23 -22.58159 -47.12208 15557 ft 368 kts 333°
2026-05-08 23:23 -22.55867 -47.13467 16007 ft 371 kts 333°
2026-05-08 23:23 -22.53584 -47.14718 16447 ft 374 kts 333°
2026-05-08 23:23 -22.51256 -47.15992 16895 ft 377 kts 333°
2026-05-08 23:24 -22.48910 -47.17278 17319 ft 380 kts 333°
2026-05-08 23:24 -22.46544 -47.18576 17727 ft 383 kts 333°
2026-05-08 23:24 -22.44162 -47.19880 18128 ft 385 kts 333°
2026-05-08 23:24 -22.41759 -47.21192 18526 ft 388 kts 333°
2026-05-08 23:25 -22.39346 -47.22509 18938 ft 390 kts 333°
2026-05-08 23:25 -22.36920 -47.23832 19329 ft 392 kts 332°
2026-05-08 23:25 -22.34510 -47.25148 19712 ft 394 kts 332°
2026-05-08 23:25 -22.32049 -47.26476 20090 ft 397 kts 335°
2026-05-08 23:26 -22.29428 -47.27441 20444 ft 401 kts 345°
2026-05-08 23:26 -22.26647 -47.27837 20770 ft 407 kts 356°
2026-05-08 23:26 -22.23801 -47.27625 21035 ft 414 kts
2026-05-08 23:26 -22.20942 -47.27112 21332 ft 418 kts
2026-05-08 23:27 -22.18065 -47.26596 21645 ft 421 kts
2026-05-08 23:27 -22.15170 -47.26081 21952 ft 423 kts
2026-05-08 23:27 -22.12255 -47.25566 22267 ft 426 kts
2026-05-08 23:27 -22.09360 -47.25058 22555 ft 429 kts
2026-05-08 23:28 -22.06409 -47.24540 22840 ft 432 kts
2026-05-08 23:28 -22.03432 -47.24017 23117 ft 435 kts
2026-05-08 23:28 -22.00441 -47.23491 23386 ft 437 kts
2026-05-08 23:28 -21.97426 -47.22959 23658 ft 440 kts
2026-05-08 23:29 -21.94399 -47.22423 23922 ft 443 kts
2026-05-08 23:29 -21.91349 -47.21885 24176 ft 445 kts
2026-05-08 23:29 -21.88281 -47.21347 24434 ft 448 kts
2026-05-08 23:29 -21.85243 -47.20815 24683 ft 450 kts
2026-05-08 23:30 -21.82147 -47.20273 24929 ft 452 kts
2026-05-08 23:30 -21.79024 -47.19905 25171 ft 450 kts 358°
2026-05-08 23:30 -21.75904 -47.20080 25390 ft 449 kts 350°
2026-05-08 23:30 -21.72797 -47.20488 25610 ft 451 kts 350°
2026-05-08 23:31 -21.69676 -47.20902 25840 ft 453 kts 350°
2026-05-08 23:31 -21.66545 -47.21318 26074 ft 455 kts 350°
2026-05-08 23:31 -21.63398 -47.21739 26299 ft 456 kts 350°
2026-05-08 23:31 -21.60241 -47.22160 26509 ft 458 kts 350°
2026-05-08 23:32 -21.57112 -47.22573 26700 ft 460 kts 350°
2026-05-08 23:32 -21.53929 -47.22989 26905 ft 461 kts 350°
2026-05-08 23:32 -21.50736 -47.23404 27124 ft 463 kts 350°
2026-05-08 23:32 -21.47540 -47.23822 27333 ft 464 kts 350°
2026-05-08 23:33 -21.44332 -47.24242 27539 ft 465 kts 350°
2026-05-08 23:33 -21.41113 -47.24665 27722 ft 467 kts 350°
2026-05-08 23:33 -21.37882 -47.25089 27901 ft 469 kts 350°
2026-05-08 23:33 -21.34640 -47.25524 28052 ft 470 kts 350°
2026-05-08 23:34 -21.31435 -47.26010 28178 ft 472 kts 349°
2026-05-08 23:34 -21.28183 -47.26556 28320 ft 474 kts 348°
2026-05-08 23:34 -21.24926 -47.27131 28494 ft 475 kts 348°
2026-05-08 23:34 -21.21668 -47.27711 28677 ft 476 kts 348°
2026-05-08 23:35 -21.18399 -47.28284 28849 ft 477 kts 348°
2026-05-08 23:35 -21.15123 -47.28841 29097 ft 476 kts 348°
2026-05-08 23:35 -21.11849 -47.29384 29351 ft 475 kts 349°
2026-05-08 23:35 -21.08585 -47.29922 29601 ft 475 kts 349°
2026-05-08 23:36 -21.05368 -47.30452 29827 ft 474 kts 349°
2026-05-08 23:36 -21.02105 -47.30990 30031 ft 475 kts 348°
2026-05-08 23:36 -20.98835 -47.31529 30197 ft 476 kts 348°
2026-05-08 23:36 -20.95563 -47.32073 30404 ft 476 kts 348°
2026-05-08 23:37 -20.92293 -47.32618 30612 ft 476 kts 348°
2026-05-08 23:37 -20.89029 -47.33164 30840 ft 475 kts 348°
2026-05-08 23:37 -20.85756 -47.33710 31072 ft 475 kts 348°
2026-05-08 23:37 -20.82495 -47.34254 31285 ft 475 kts 348°
2026-05-08 23:38 -20.79272 -47.34791 31502 ft 475 kts 348°
2026-05-08 23:38 -20.76010 -47.35335 31684 ft 475 kts 348°
2026-05-08 23:38 -20.72741 -47.35878 31889 ft 475 kts 348°
2026-05-08 23:38 -20.69486 -47.36418 32130 ft 474 kts 348°
2026-05-08 23:39 -20.66226 -47.36955 32339 ft 474 kts 348°
2026-05-08 23:39 -20.62973 -47.37489 32537 ft 474 kts 348°
2026-05-08 23:39 -20.59713 -47.38028 32702 ft 474 kts 348°
2026-05-08 23:39 -20.56445 -47.38565 32870 ft 475 kts 349°
2026-05-08 23:40 -20.53220 -47.39071 33059 ft 475 kts 349°
2026-05-08 23:40 -20.49949 -47.39566 33263 ft 475 kts 349°
2026-05-08 23:40 -20.46677 -47.40048 33452 ft 475 kts 349°
2026-05-08 23:40 -20.43405 -47.40524 33644 ft 474 kts 349°
2026-05-08 23:41 -20.40137 -47.41004 33829 ft 474 kts 349°
2026-05-08 23:41 -20.36868 -47.41490 33970 ft 474 kts 349°
2026-05-08 23:41 -20.30335 -47.42478 34002 ft 474 kts 349°
2026-05-08 23:42 -20.23839 -47.43463 34001 ft 475 kts 349°
2026-05-08 23:42 -20.17306 -47.44438 34003 ft 474 kts 349°
2026-05-08 23:43 -20.10777 -47.45408 34002 ft 473 kts 349°
2026-05-08 23:43 -20.04260 -47.46388 34008 ft 473 kts 349°
2026-05-08 23:44 -19.97746 -47.47369 34011 ft 473 kts 349°
2026-05-08 23:44 -19.91279 -47.48339 34013 ft 473 kts 349°
2026-05-08 23:45 -19.84769 -47.49313 34003 ft 473 kts 349°
2026-05-08 23:45 -19.78245 -47.50284 33999 ft 473 kts 349°
2026-05-08 23:46 -19.71723 -47.51247 34069 ft 474 kts 349°
2026-05-08 23:46 -19.65144 -47.52210 34066 ft 479 kts 349°
2026-05-08 23:47 -19.58579 -47.53167 34064 ft 480 kts 349°
2026-05-08 23:47 -19.51949 -47.54141 34066 ft 482 kts 349°
2026-05-08 23:48 -19.45304 -47.55111 34074 ft 482 kts 349°
2026-05-08 23:48 -19.38654 -47.56075 34079 ft 482 kts 349°
2026-05-08 23:49 -19.32049 -47.57042 34082 ft 483 kts 349°
2026-05-08 23:49 -19.25395 -47.58021 34082 ft 483 kts 349°
2026-05-08 23:50 -19.18746 -47.58991 34085 ft 482 kts 349°
2026-05-08 23:50 -19.12090 -47.59952 34088 ft 483 kts 349°
2026-05-08 23:51 -19.05484 -47.60903 34091 ft 482 kts 349°
2026-05-08 23:51 -18.98835 -47.61863 34084 ft 482 kts 349°
2026-05-08 23:52 -18.92179 -47.62788 34081 ft 482 kts 350°
2026-05-08 23:52 -18.85525 -47.63702 34081 ft 482 kts 350°
2026-05-08 23:53 -18.78915 -47.64616 34084 ft 482 kts 350°
2026-05-08 23:53 -18.72267 -47.65541 34082 ft 482 kts 349°
2026-05-08 23:54 -18.65617 -47.66466 34082 ft 482 kts 350°
2026-05-08 23:55 -18.55699 -47.67848 34083 ft 481 kts 349°
2026-05-08 23:55 -18.49071 -47.68828 34083 ft 481 kts 349°
2026-05-08 23:56 -18.42456 -47.69821 34080 ft 480 kts 349°
2026-05-08 23:56 -18.35833 -47.70792 34085 ft 481 kts 349°
2026-05-08 23:57 -18.29192 -47.71753 34089 ft 482 kts 349°
2026-05-08 23:57 -18.22606 -47.72817 34089 ft 482 kts 348°
2026-05-08 23:58 -18.15982 -47.73975 34090 ft 483 kts 348°
2026-05-08 23:58 -18.09346 -47.75120 34099 ft 484 kts 348°
2026-05-08 23:59 -18.02696 -47.76239 34101 ft 484 kts 348°
2026-05-08 23:59 -17.96095 -47.77332 34103 ft 484 kts 348°
2026-05-09 00:00 -17.89434 -47.78435 34103 ft 484 kts 348°
2026-05-09 00:00 -17.82774 -47.79549 34105 ft 485 kts 348°
2026-05-09 00:01 -17.76118 -47.80662 34108 ft 485 kts 348°
2026-05-09 00:01 -17.69501 -47.81770 34107 ft 485 kts 348°
2026-05-09 00:02 -17.62839 -47.82881 34110 ft 485 kts 348°
2026-05-09 00:02 -17.56173 -47.83992 34112 ft 485 kts 348°
2026-05-09 00:03 -17.49504 -47.85105 34114 ft 485 kts 348°
2026-05-09 00:03 -17.42872 -47.86212 34116 ft 486 kts 348°
2026-05-09 00:04 -17.36198 -47.87317 34118 ft 486 kts 348°
2026-05-09 00:04 -17.29518 -47.88417 34119 ft 486 kts 348°
2026-05-09 00:05 -17.22838 -47.89525 34121 ft 486 kts 348°
2026-05-09 00:05 -17.16166 -47.90632 34123 ft 485 kts 348°
2026-05-09 00:06 -17.09545 -47.91733 34122 ft 485 kts 348°
2026-05-09 00:06 -17.02879 -47.92838 34122 ft 485 kts 348°
2026-05-09 00:07 -16.96204 -47.93934 34123 ft 486 kts 348°
2026-05-09 00:07 -16.89521 -47.95037 34124 ft 486 kts 348°
2026-05-09 00:08 -16.82886 -47.96134 34123 ft 486 kts 348°
2026-05-09 00:08 -16.76197 -47.97242 34126 ft 486 kts 348°
2026-05-09 00:09 -16.69508 -47.98345 34127 ft 486 kts 348°
2026-05-09 00:09 -16.62823 -47.99445 34126 ft 486 kts 348°
2026-05-09 00:10 -16.56181 -48.00537 34126 ft 486 kts 348°
2026-05-09 00:10 -16.49497 -48.01631 34127 ft 486 kts 348°
2026-05-09 00:11 -16.42810 -48.02739 34127 ft 487 kts 348°
2026-05-09 00:11 -16.36122 -48.03845 34127 ft 487 kts 348°
2026-05-09 00:12 -16.29426 -48.04945 34126 ft 487 kts 349°
2026-05-09 00:12 -16.22828 -48.06021 34130 ft 487 kts 349°
2026-05-09 00:13 -16.16123 -48.07116 34131 ft 488 kts 348°
2026-05-09 00:13 -16.09417 -48.08216 34135 ft 488 kts 348°
2026-05-09 00:14 -16.02710 -48.09316 34138 ft 488 kts 348°
2026-05-09 00:14 -15.96036 -48.10411 34141 ft 489 kts 348°
2026-05-09 00:15 -15.89320 -48.11513 34138 ft 489 kts 348°
2026-05-09 00:15 -15.82597 -48.12608 34135 ft 489 kts 349°
2026-05-09 00:16 -15.75880 -48.13698 34131 ft 489 kts 349°
2026-05-09 00:16 -15.69198 -48.14789 34136 ft 490 kts 348°
2026-05-09 00:17 -15.62455 -48.15896 34139 ft 492 kts 348°
2026-05-09 00:17 -15.55681 -48.17006 34146 ft 493 kts 348°
2026-05-09 00:18 -15.48899 -48.18066 34160 ft 494 kts 353°
2026-05-09 00:18 -15.42064 -48.18319 34167 ft 495 kts 356°
2026-05-09 00:19 -15.35180 -48.18535 34174 ft 495 kts 356°
2026-05-09 00:19 -15.28304 -48.18753 34177 ft 494 kts 356°
2026-05-09 00:20 -15.21428 -48.18972 34178 ft 494 kts 356°
2026-05-09 00:20 -15.14551 -48.19191 34179 ft 494 kts 356°
2026-05-09 00:21 -15.07717 -48.19404 34181 ft 494 kts 356°
2026-05-09 00:21 -15.00841 -48.19620 34180 ft 494 kts 356°
2026-05-09 00:22 -14.93967 -48.19837 34178 ft 494 kts 356°
2026-05-09 00:22 -14.87087 -48.20045 34174 ft 495 kts 356°
2026-05-09 00:23 -14.80202 -48.20236 34167 ft 495 kts 356°
2026-05-09 00:23 -14.73352 -48.20415 34171 ft 495 kts 356°
2026-05-09 00:24 -14.66466 -48.20597 34179 ft 495 kts 356°
2026-05-09 00:24 -14.59587 -48.20788 34180 ft 494 kts 356°
2026-05-09 00:25 -14.52716 -48.20990 34179 ft 494 kts 356°
2026-05-09 00:25 -14.45898 -48.21187 34175 ft 493 kts 356°
2026-05-09 00:26 -14.39045 -48.21375 34176 ft 493 kts 356°
2026-05-09 00:26 -14.32193 -48.21568 34179 ft 492 kts 356°
2026-05-09 00:27 -14.25366 -48.21758 34178 ft 491 kts 356°
2026-05-09 00:27 -14.18583 -48.21942 34176 ft 490 kts 356°
2026-05-09 00:28 -14.11763 -48.22128 34173 ft 490 kts 356°
2026-05-09 00:28 -14.04947 -48.22325 34167 ft 490 kts 356°
2026-05-09 00:29 -13.98129 -48.22518 34167 ft 490 kts 356°
2026-05-09 00:29 -13.91310 -48.22701 34160 ft 490 kts 356°
2026-05-09 00:30 -13.84536 -48.22893 34165 ft 490 kts 356°
2026-05-09 00:30 -13.77716 -48.23082 34164 ft 490 kts 356°
2026-05-09 00:31 -13.70902 -48.23267 34158 ft 490 kts 356°
2026-05-09 00:31 -13.64071 -48.23457 34154 ft 491 kts 356°
2026-05-09 00:32 -13.57291 -48.23651 34161 ft 491 kts 356°
2026-05-09 00:32 -13.50463 -48.23836 34168 ft 491 kts 356°
2026-05-09 00:33 -13.43644 -48.24019 34167 ft 491 kts 356°
2026-05-09 00:33 -13.36816 -48.24208 34164 ft 491 kts 356°
2026-05-09 00:34 -13.30032 -48.24396 34173 ft 491 kts 356°
2026-05-09 00:34 -13.23202 -48.24587 34178 ft 491 kts 356°
2026-05-09 00:35 -13.16380 -48.24780 34179 ft 490 kts 356°
2026-05-09 00:35 -13.09558 -48.24964 34177 ft 490 kts 356°
2026-05-09 00:36 -13.02740 -48.25152 34175 ft 490 kts 356°
2026-05-09 00:36 -12.99337 -48.25247 34060 ft 490 kts 356°
2026-05-09 00:36 -12.95937 -48.25342 33934 ft 487 kts 356°
2026-05-09 00:37 -12.89236 -48.25531 33921 ft 485 kts 356°
2026-05-09 00:37 -12.82486 -48.25714 33922 ft 486 kts 356°
2026-05-09 00:38 -12.75721 -48.25895 33925 ft 487 kts 356°
2026-05-09 00:38 -12.68947 -48.26072 33931 ft 487 kts 356°
2026-05-09 00:39 -12.62168 -48.26260 33931 ft 487 kts 356°
2026-05-09 00:39 -12.55437 -48.26456 33936 ft 487 kts 356°
2026-05-09 00:40 -12.48658 -48.26645 33937 ft 487 kts 356°
2026-05-09 00:40 -12.41871 -48.26824 33944 ft 488 kts 356°
2026-05-09 00:41 -12.31688 -48.27099 33953 ft 488 kts 356°
2026-05-09 00:41 -12.24941 -48.27282 33946 ft 488 kts 356°
2026-05-09 00:42 -12.18154 -48.27467 33952 ft 488 kts 356°
2026-05-09 00:42 -12.12511 -48.27626 33942 ft 488 kts 356°
2026-05-09 00:43 -12.05727 -48.27812 33940 ft 488 kts 356°
2026-05-09 00:43 -11.97830 -48.28021 33945 ft 488 kts 356°
2026-05-09 00:44 -11.91041 -48.28201 33957 ft 488 kts 356°
2026-05-09 00:44 -11.85392 -48.28355 33945 ft 488 kts 356°
2026-05-09 00:45 -11.78598 -48.28541 33945 ft 488 kts 356°
2026-05-09 00:45 -11.71805 -48.28722 33946 ft 488 kts 356°
2026-05-09 00:46 -11.65020 -48.28911 33945 ft 488 kts 357°
2026-05-09 00:46 -11.58246 -48.29098 33968 ft 486 kts 358°
2026-05-09 00:47 -11.51549 -48.29278 33971 ft 484 kts 358°
2026-05-09 00:47 -11.44826 -48.29462 33968 ft 483 kts 357°
2026-05-09 00:48 -11.38115 -48.29647 33971 ft 482 kts 358°
2026-05-09 00:48 -11.31409 -48.29829 33961 ft 482 kts 358°
2026-05-09 00:49 -11.24708 -48.30081 33959 ft 482 kts 355°
2026-05-09 00:49 -11.18070 -48.30545 33963 ft 481 kts 354°
2026-05-09 00:50 -11.11398 -48.31052 33948 ft 481 kts 355°
2026-05-09 00:50 -11.04717 -48.31510 33948 ft 481 kts 355°
2026-05-09 00:51 -10.98033 -48.31933 33937 ft 482 kts 355°
2026-05-09 00:51 -10.91337 -48.32343 33946 ft 482 kts 355°
2026-05-09 00:52 -10.84690 -48.32721 33957 ft 482 kts 356°
2026-05-09 00:52 -10.77995 -48.33083 33956 ft 482 kts 356°
2026-05-09 00:53 -10.71308 -48.33450 33952 ft 481 kts 356°
2026-05-09 00:53 -10.64621 -48.33825 33956 ft 481 kts 356°
2026-05-09 00:54 -10.57984 -48.34196 33952 ft 481 kts 356°
2026-05-09 00:54 -10.51295 -48.34568 33950 ft 481 kts 356°
2026-05-09 00:55 -10.44612 -48.34944 33952 ft 481 kts 356°
2026-05-09 00:55 -10.37926 -48.35324 33949 ft 481 kts 356°
2026-05-09 00:56 -10.31288 -48.35697 33958 ft 481 kts 356°
2026-05-09 00:56 -10.24602 -48.36011 33954 ft 481 kts 358°
2026-05-09 00:57 -10.17908 -48.36094 33955 ft 481 kts 359°
2026-05-09 00:57 -10.11213 -48.36111 33945 ft 481 kts 359°
2026-05-09 00:58 -10.04517 -48.36172 33950 ft 481 kts 359°
2026-05-09 00:58 -9.97816 -48.36280 33953 ft 482 kts 358°
2026-05-09 00:59 -9.91156 -48.36403 33958 ft 482 kts 358°
2026-05-09 00:59 -9.84453 -48.36508 33963 ft 482 kts 359°
2026-05-09 01:00 -9.77749 -48.36601 33954 ft 481 kts 359°
2026-05-09 01:00 -9.71049 -48.36673 33959 ft 481 kts 359°
2026-05-09 01:01 -9.64401 -48.36732 33950 ft 481 kts 359°
2026-05-09 01:01 -9.57705 -48.36810 33948 ft 481 kts 359°
2026-05-09 01:02 -9.51015 -48.36910 33944 ft 481 kts 358°
2026-05-09 01:02 -9.44326 -48.37008 33945 ft 480 kts 359°
2026-05-09 01:03 -9.37650 -48.37098 33937 ft 480 kts 359°
2026-05-09 01:03 -9.31012 -48.37189 33937 ft 480 kts 359°
2026-05-09 01:04 -9.24323 -48.37281 33937 ft 480 kts 359°
2026-05-09 01:04 -9.17639 -48.37369 33937 ft 481 kts 359°
2026-05-09 01:05 -9.10949 -48.37462 33939 ft 481 kts 359°
2026-05-09 01:06 -9.00958 -48.37604 33945 ft 481 kts 359°
2026-05-09 01:06 -8.94267 -48.37695 33928 ft 481 kts 358°
2026-05-09 01:07 -8.87577 -48.37788 33924 ft 481 kts 358°
2026-05-09 01:07 -8.80887 -48.37884 33919 ft 480 kts 358°
2026-05-09 01:08 -8.74251 -48.37977 33914 ft 480 kts 358°
2026-05-09 01:08 -8.67573 -48.38056 33911 ft 480 kts 358°
2026-05-09 01:09 -8.60896 -48.38144 33909 ft 480 kts 358°
2026-05-09 01:09 -8.54214 -48.38247 33907 ft 480 kts 358°
2026-05-09 01:10 -8.47535 -48.38358 33908 ft 480 kts 358°
2026-05-09 01:10 -8.40898 -48.38456 33909 ft 480 kts 358°
2026-05-09 01:11 -8.34211 -48.38543 33911 ft 481 kts 358°
2026-05-09 01:11 -8.27528 -48.38631 33913 ft 480 kts 358°
2026-05-09 01:12 -8.20843 -48.38725 33912 ft 480 kts 358°
2026-05-09 01:12 -8.14163 -48.38820 33910 ft 480 kts 358°
2026-05-09 01:13 -8.07481 -48.38910 33929 ft 481 kts 358°
2026-05-09 01:13 -8.04174 -48.38951 34159 ft 482 kts 358°
2026-05-09 01:13 -8.00823 -48.38992 34417 ft 481 kts 358°
2026-05-09 01:13 -7.97480 -48.39035 34653 ft 481 kts 358°
2026-05-09 01:14 -7.94137 -48.39081 34888 ft 480 kts 358°
2026-05-09 01:14 -7.90791 -48.39132 35098 ft 480 kts 358°
2026-05-09 01:14 -7.87451 -48.39182 35306 ft 480 kts 358°
2026-05-09 01:14 -7.84116 -48.39230 35505 ft 480 kts 358°
2026-05-09 01:15 -7.80775 -48.39278 35706 ft 480 kts 358°
2026-05-09 01:15 -7.77483 -48.39321 35880 ft 480 kts 358°
2026-05-09 01:15 -7.74147 -48.39363 35923 ft 480 kts 358°
2026-05-09 01:16 -7.67472 -48.39446 35920 ft 479 kts 358°
2026-05-09 01:16 -7.60813 -48.39539 35920 ft 477 kts 357°
2026-05-09 01:17 -7.50905 -48.39671 35920 ft 474 kts 357°
2026-05-09 01:17 -7.44356 -48.39759 35922 ft 474 kts 357°
2026-05-09 01:18 -7.37760 -48.39839 35925 ft 474 kts 357°
2026-05-09 01:18 -7.31164 -48.39930 35928 ft 474 kts 357°
2026-05-09 01:19 -7.24567 -48.40022 35927 ft 474 kts 357°
2026-05-09 01:19 -7.18018 -48.40111 35926 ft 474 kts 356°
2026-05-09 01:20 -7.11427 -48.40206 35923 ft 474 kts 357°
2026-05-09 01:20 -7.04835 -48.40285 35923 ft 474 kts 357°
2026-05-09 01:21 -6.98243 -48.40366 35924 ft 474 kts 357°
2026-05-09 01:21 -6.91645 -48.40463 35927 ft 474 kts 357°
2026-05-09 01:22 -6.85097 -48.40551 35930 ft 474 kts 357°
2026-05-09 01:22 -6.78500 -48.40638 35929 ft 474 kts 357°
2026-05-09 01:23 -6.71897 -48.40729 35516 ft 477 kts 357°
2026-05-09 01:23 -6.65319 -48.40817 35826 ft 472 kts 357°
2026-05-09 01:24 -6.58766 -48.40902 35933 ft 476 kts 357°
2026-05-09 01:24 -6.52149 -48.40991 35936 ft 475 kts 357°
2026-05-09 01:25 -6.45538 -48.41079 35932 ft 475 kts 357°
2026-05-09 01:25 -6.38933 -48.41160 35933 ft 474 kts 357°
2026-05-09 01:26 -6.32376 -48.41247 35935 ft 474 kts 357°
2026-05-09 01:26 -6.25793 -48.41339 35943 ft 473 kts 357°
2026-05-09 01:27 -6.19219 -48.41430 35941 ft 472 kts 357°
2026-05-09 01:27 -6.12657 -48.41518 35939 ft 471 kts 357°
2026-05-09 01:28 -6.06104 -48.41609 35937 ft 471 kts 357°
2026-05-09 01:28 -5.99591 -48.41696 35937 ft 471 kts 357°
2026-05-09 01:29 -5.93032 -48.41779 35936 ft 471 kts 357°
2026-05-09 01:29 -5.86473 -48.41869 35936 ft 471 kts 357°
2026-05-09 01:30 -5.79916 -48.41958 35936 ft 471 kts 357°
2026-05-09 01:30 -5.73366 -48.42040 35934 ft 471 kts 357°
2026-05-09 01:31 -5.66859 -48.42128 35931 ft 471 kts 357°
2026-05-09 01:31 -5.60311 -48.42219 35930 ft 471 kts 357°
2026-05-09 01:32 -5.53763 -48.42304 35930 ft 471 kts 357°
2026-05-09 01:32 -5.47218 -48.42384 35929 ft 470 kts 357°
2026-05-09 01:33 -5.40718 -48.42477 35929 ft 470 kts 357°
2026-05-09 01:33 -5.34169 -48.42566 35932 ft 471 kts 357°
2026-05-09 01:34 -5.27621 -48.42654 35932 ft 471 kts 357°
2026-05-09 01:34 -5.21073 -48.42737 35932 ft 470 kts 357°
2026-05-09 01:35 -5.14574 -48.42818 35932 ft 470 kts 357°
2026-05-09 01:35 -5.08025 -48.42911 35931 ft 470 kts 357°
2026-05-09 01:36 -5.01479 -48.43002 35930 ft 471 kts 358°
2026-05-09 01:36 -4.94930 -48.43096 35930 ft 471 kts 358°
2026-05-09 01:37 -4.88372 -48.43185 35929 ft 471 kts 358°
2026-05-09 01:37 -4.81859 -48.43268 35926 ft 471 kts 358°
2026-05-09 01:38 -4.75299 -48.43355 35929 ft 472 kts 358°
2026-05-09 01:38 -4.68738 -48.43445 35929 ft 472 kts 358°
2026-05-09 01:39 -4.62175 -48.43525 35931 ft 472 kts 358°
2026-05-09 01:39 -4.55657 -48.43615 35933 ft 471 kts 358°
2026-05-09 01:40 -4.49097 -48.43708 35934 ft 471 kts 358°
2026-05-09 01:40 -4.42540 -48.43798 35933 ft 471 kts 358°
2026-05-09 01:41 -4.36029 -48.43882 35932 ft 471 kts 358°
2026-05-09 01:41 -4.29482 -48.43972 35930 ft 471 kts 358°
2026-05-09 01:42 -4.22933 -48.44063 35925 ft 468 kts 358°
2026-05-09 01:42 -4.16541 -48.44149 35920 ft 454 kts 358°
2026-05-09 01:43 -4.10238 -48.44231 35920 ft 452 kts 358°
2026-05-09 01:43 -4.03981 -48.44317 35920 ft 452 kts 358°
2026-05-09 01:44 -3.97690 -48.44402 35920 ft 452 kts 358°
2026-05-09 01:44 -3.91373 -48.44480 35760 ft 459 kts 358°
2026-05-09 01:45 -3.88153 -48.44523 35170 ft 466 kts 358°
2026-05-09 01:45 -3.84938 -48.44570 34383 ft 469 kts 358°
2026-05-09 01:45 -3.81684 -48.44617 33787 ft 466 kts 358°
2026-05-09 01:45 -3.78457 -48.44663 33252 ft 462 kts 358°
2026-05-09 01:46 -3.75257 -48.44708 32697 ft 458 kts 358°
2026-05-09 01:46 -3.72082 -48.44750 32154 ft 454 kts 358°
2026-05-09 01:46 -3.68937 -48.44793 31647 ft 450 kts 358°
2026-05-09 01:46 -3.65823 -48.44834 31146 ft 445 kts 358°
2026-05-09 01:47 -3.62737 -48.44874 30635 ft 441 kts 358°
2026-05-09 01:47 -3.59719 -48.44913 30134 ft 437 kts 358°
2026-05-09 01:47 -3.56691 -48.44952 29632 ft 433 kts 358°
2026-05-09 01:47 -3.53688 -48.44993 29125 ft 430 kts 358°
2026-05-09 01:48 -3.50713 -48.45034 28590 ft 427 kts 358°
2026-05-09 01:48 -3.47747 -48.45088 28026 ft 425 kts 357°
2026-05-09 01:48 -3.44800 -48.45215 27446 ft 423 kts 355°
2026-05-09 01:48 -3.41867 -48.45398 26862 ft 422 kts 355°
2026-05-09 01:49 -3.38942 -48.45611 26272 ft 421 kts 355°
2026-05-09 01:49 -3.36026 -48.45827 25689 ft 420 kts 356°
2026-05-09 01:49 -3.33161 -48.46028 25156 ft 418 kts 356°
2026-05-09 01:49 -3.30269 -48.46219 24653 ft 415 kts 358°
2026-05-09 01:50 -3.27402 -48.46400 24165 ft 411 kts 358°
2026-05-09 01:50 -3.24563 -48.46572 23699 ft 407 kts 359°
2026-05-09 01:50 -3.21754 -48.46736 23244 ft 403 kts 359°
2026-05-09 01:50 -3.18963 -48.46898 22734 ft 401 kts 358°
2026-05-09 01:51 -3.16182 -48.47063 22223 ft 399 kts 357°
2026-05-09 01:51 -3.13417 -48.47227 21747 ft 397 kts 356°
2026-05-09 01:51 -3.10702 -48.47388 21315 ft 394 kts 356°
2026-05-09 01:51 -3.07978 -48.47550 20908 ft 390 kts 355°
2026-05-09 01:52 -3.05283 -48.47713 20513 ft 386 kts 355°
2026-05-09 01:52 -3.02620 -48.47878 20143 ft 381 kts 355°
2026-05-09 01:52 -2.99993 -48.48041 19781 ft 376 kts 355°
2026-05-09 01:52 -2.97400 -48.48200 19423 ft 371 kts 355°
2026-05-09 01:53 -2.94844 -48.48358 19056 ft 366 kts 355°
2026-05-09 01:53 -2.92316 -48.48514 18688 ft 362 kts 355°
2026-05-09 01:53 -2.89820 -48.48668 18307 ft 358 kts 355°
2026-05-09 01:53 -2.87382 -48.48818 17903 ft 355 kts 356°
2026-05-09 01:54 -2.84929 -48.48966 17499 ft 352 kts 356°
2026-05-09 01:54 -2.82489 -48.49110 17075 ft 350 kts 356°
2026-05-09 01:54 -2.80069 -48.49254 16668 ft 347 kts 356°
2026-05-09 01:54 -2.77663 -48.49399 16250 ft 345 kts 355°
2026-05-09 01:55 -2.75277 -48.49542 15957 ft 340 kts 355°
2026-05-09 01:55 -2.72952 -48.49681 15941 ft 328 kts 355°
2026-05-09 01:55 -2.70686 -48.49818 15997 ft 325 kts 355°
2026-05-09 01:55 -2.68436 -48.49955 16002 ft 323 kts 355°
2026-05-09 01:56 -2.66223 -48.50091 16002 ft 323 kts 355°
2026-05-09 01:56 -2.63981 -48.50230 16000 ft 323 kts 355°
2026-05-09 01:56 -2.61730 -48.50369 15976 ft 324 kts 355°
2026-05-09 01:56 -2.59475 -48.50507 15975 ft 326 kts 355°
2026-05-09 01:57 -2.57211 -48.50642 15975 ft 327 kts 356°
2026-05-09 01:57 -2.54936 -48.50778 15975 ft 328 kts 356°
2026-05-09 01:57 -2.52652 -48.50914 15975 ft 329 kts 356°
2026-05-09 01:57 -2.50367 -48.51060 15947 ft 331 kts 355°
2026-05-09 01:58 -2.48106 -48.51246 15695 ft 329 kts 355°
2026-05-09 01:58 -2.45832 -48.51460 15444 ft 328 kts 354°
2026-05-09 01:58 -2.43562 -48.51685 15187 ft 327 kts 355°
2026-05-09 01:58 -2.41303 -48.51911 14944 ft 325 kts 355°
2026-05-09 01:59 -2.39060 -48.52130 14693 ft 323 kts 355°
2026-05-09 01:59 -2.36828 -48.52343 14443 ft 321 kts 356°
2026-05-09 01:59 -2.34616 -48.52550 14193 ft 318 kts 356°
2026-05-09 01:59 -2.32450 -48.52752 13949 ft 315 kts 356°
2026-05-09 02:00 -2.30280 -48.52952 13696 ft 312 kts 356°
2026-05-09 02:00 -2.28128 -48.53150 13440 ft 309 kts 356°
2026-05-09 02:00 -2.25992 -48.53349 13195 ft 308 kts 356°
2026-05-09 02:00 -2.23863 -48.53548 12949 ft 307 kts 356°
2026-05-09 02:01 -2.21742 -48.53745 12694 ft 306 kts 356°
2026-05-09 02:01 -2.19626 -48.53944 12443 ft 305 kts 356°
2026-05-09 02:01 -2.17521 -48.54140 12193 ft 304 kts 356°
2026-05-09 02:01 -2.15414 -48.54336 11942 ft 303 kts 356°
2026-05-09 02:02 -2.13345 -48.54529 11695 ft 302 kts 356°
2026-05-09 02:02 -2.11256 -48.54724 11445 ft 302 kts 357°
2026-05-09 02:02 -2.09166 -48.54920 11194 ft 301 kts 357°
2026-05-09 02:02 -2.07085 -48.55113 10932 ft 300 kts 357°
2026-05-09 02:03 -2.05004 -48.55305 10693 ft 300 kts 357°
2026-05-09 02:03 -2.02930 -48.55497 10444 ft 299 kts 357°
2026-05-09 02:03 -2.00859 -48.55688 10191 ft 299 kts 357°
2026-05-09 02:03 -1.98792 -48.55880 9940 ft 298 kts 357°
2026-05-09 02:04 -1.96761 -48.56071 9803 ft 298 kts 357°
2026-05-09 02:04 -1.94695 -48.56265 9678 ft 298 kts 357°
2026-05-09 02:04 -1.92637 -48.56459 9553 ft 297 kts 357°
2026-05-09 02:04 -1.90579 -48.56651 9428 ft 297 kts 357°
2026-05-09 02:05 -1.88519 -48.56843 9302 ft 297 kts 357°
2026-05-09 02:05 -1.86468 -48.57033 9145 ft 295 kts 357°
2026-05-09 02:05 -1.84437 -48.57222 8790 ft 292 kts 357°
2026-05-09 02:05 -1.82438 -48.57407 8390 ft 292 kts 357°
2026-05-09 02:06 -1.80416 -48.57596 7982 ft 292 kts 357°
2026-05-09 02:06 -1.78394 -48.57784 7555 ft 292 kts 357°
2026-05-09 02:06 -1.76371 -48.57970 7129 ft 292 kts 357°
2026-05-09 02:07 -1.72332 -48.58347 6305 ft 290 kts 356°
2026-05-09 02:07 -1.70321 -48.58534 5896 ft 289 kts 356°
2026-05-09 02:07 -1.68323 -48.58721 5465 ft 288 kts 356°
2026-05-09 02:07 -1.66335 -48.58907 5006 ft 289 kts 356°
2026-05-09 02:08 -1.64384 -48.59089 4692 ft 283 kts 356°
2026-05-09 02:08 -1.62423 -48.59272 4263 ft 283 kts 356°
2026-05-09 02:08 -1.60473 -48.59453 3924 ft 278 kts 356°
2026-05-09 02:08 -1.58585 -48.59627 3774 ft 266 kts 357°
2026-05-09 02:09 -1.56788 -48.59795 3671 ft 253 kts 357°
2026-05-09 02:09 -1.55070 -48.59956 3565 ft 242 kts 357°
2026-05-09 02:09 -1.53423 -48.60111 3462 ft 236 kts 357°
2026-05-09 02:09 -1.51815 -48.60243 3358 ft 233 kts
2026-05-09 02:10 -1.50272 -48.59887 3241 ft 227 kts 30°
2026-05-09 02:10 -1.49063 -48.58919 2990 ft 221 kts 48°
2026-05-09 02:10 -1.47995 -48.57822 2743 ft 219 kts 47°
2026-05-09 02:10 -1.46936 -48.56739 2488 ft 217 kts 47°
2026-05-09 02:11 -1.45890 -48.55670 2209 ft 216 kts 46°
2026-05-09 02:11 -1.44824 -48.54583 1776 ft 218 kts 46°
2026-05-09 02:11 -1.43779 -48.53526 1456 ft 209 kts 46°
2026-05-09 02:11 -1.42777 -48.52514 1175 ft 201 kts 45°
2026-05-09 02:12 -1.41806 -48.51534 922 ft 197 kts 45°
2026-05-09 02:12 -1.40881 -48.50601 680 ft 185 kts 45°
2026-05-09 02:12 -1.40012 -48.49724 433 ft 170 kts 46°
2026-05-09 02:12 -1.39230 -48.48935 218 ft 152 kts 46°
2026-05-09 02:13 -1.38504 -48.48202 48 ft 145 kts 45°
2026-05-09 02:13 -1.37887 -48.47576 40 ft 90 kts 45°
2026-05-09 02:13 -1.37589 -48.47274 42 ft 50 kts 45°
2026-05-09 02:13 -1.37361 -48.47048 44 ft 41 kts 45°
2026-05-09 02:14 -1.37218 -48.46944 43 ft 16 kts 24°
2026-05-09 02:14 -1.37206 -48.46908 44 ft 2 kts 189°
2026-05-09 02:14 -1.37232 -48.46923 44 ft 8 kts 214°
2026-05-09 02:14 -1.37289 -48.46975 45 ft 15 kts 225°
2026-05-09 02:15 -1.37382 -48.47066 44 ft 23 kts 224°
2026-05-09 02:15 -1.37519 -48.47202 43 ft 32 kts 225°
2026-05-09 02:15 -1.37688 -48.47374 41 ft 36 kts 225°
2026-05-09 02:15 -1.37847 -48.47533 40 ft 29 kts 224°
2026-05-09 02:16 -1.37963 -48.47614 39 ft 14 kts 195°
2026-05-09 02:16 -1.38051 -48.47628 41 ft 11 kts 186°
2026-05-09 02:16 -1.38148 -48.47637 43 ft 19 kts 185°
2026-05-09 02:16 -1.38308 -48.47652 43 ft 25 kts 185°
2026-05-09 02:17 -1.38457 -48.47666 43 ft 19 kts 186°
2026-05-09 02:17 -1.38582 -48.47677 44 ft 17 kts 185°
2026-05-09 02:17 -1.38655 -48.47696 44 ft 9 kts 223°
2026-05-09 02:17 -1.38666 -48.47751 43 ft 8 kts 267°
2026-05-09 02:18 -1.38688 -48.47794 43 ft 7 kts 208°
2026-05-09 02:18 -1.38732 -48.47802 43 ft 6 kts 185°
2026-05-09 02:18 -1.38773 -48.47803 43 ft 6 kts 178°
2026-05-09 02:18 -1.38810 -48.47805 43 ft 5 kts 185°
2026-05-09 02:19 -1.38857 -48.47813 43 ft 9 kts 199°
2026-05-09 02:19 -1.38895 -48.47854 43 ft 6 kts 236°
2026-05-09 02:19 -1.38911 -48.47877 43 ft 3 kts 234°
2026-05-09 02:19 -1.38922 -48.47892 43 ft 2 kts 233°
2026-05-09 02:20 -1.38926 -48.47897 42 ft 0 kts 233°